Flag for United Kingdom Past Weather in Kingston upon Hull, England, United Kingdom — Yesterday and Last 2 Weeks

Now
54 °F

Low clouds.


Feels Like: 48 °F
Forecast: 53 / 57 °F
Wind: 20 mph from North

Location: Humberside

Current Time: May 31, 2016 at 7:05:32 PM

Latest Report: May 31, 2016 at 6:20 PM


Visibility: 5 mi

Pressure: 30.12 "Hg

Humidity: 94%

Dew Point: 52 °F

Location of Kingston upon HullLocation

Past Weather in Kingston upon Hull — Graph

°F

Kingston upon Hull Temperature Yesterday

Maximum temperature yesterday: 64 °F (at 2:20 PM)
Minimum temperature yesterday: 52 °F (at 12:20 AM)
Average temperature yesterday: 56 °F

High & Low Weather Summary for the Past Weeks

 TemperatureHumidityPressure
High66 °F (May 20, 2:50 PM)100% (May 19, 12:20 AM)30.24 "Hg (May 19, 12:20 AM)
Low37 °F (May 24, 4:20 AM)48% (May 16, 6:20 PM)29.59 "Hg (May 18, 10:50 AM)
Average54 °F83%29.95 "Hg
* Reported May 16 6:20 PM — May 31 6:20 PM, Kingston upon Hull, Weather by CustomWeather, © 2016

Note: Actual official high and low records may vary slightly from our data, if they occured in-between our weather recording intervals... More about our weather records

Advertising

Kingston upon Hull Weather History for the Previous 24 Hours

Scroll right to see more
 ConditionsComfort  
Time TempWeatherWind HumidityBarometerVisibility
6:20 PM
Tue, May 31
54 °FLow clouds.20 mph94%30.12 "Hg5 mi
5:20 PM54 °FPartly sunny.20 mph94%30.12 "HgN/A
4:50 PM54 °FPartly sunny.18 mph94%30.12 "Hg6 mi
4:20 PM54 °FLight rain. Partly sunny.20 mph94%30.12 "Hg6 mi
3:50 PM54 °FLight rain. Partly sunny.18 mph94%30.12 "Hg5 mi
3:20 PM54 °FPartly sunny.18 mph94%30.09 "HgN/A
2:50 PM54 °FPartly sunny.20 mph94%30.09 "HgN/A
2:20 PM54 °FPartly sunny.20 mph88%30.09 "HgN/A
1:50 PM54 °FPartly sunny.22 mph88%30.09 "HgN/A
1:20 PM54 °FDrizzle. Partly sunny.17 mph94%30.09 "Hg4 mi
12:50 PM52 °FDrizzle. Partly sunny.17 mph100%30.09 "Hg3 mi
12:20 PM52 °FLight rain. Partly sunny.21 mph100%30.09 "Hg3 mi
11:50 AM52 °FDrizzle. Partly sunny.20 mph100%30.09 "Hg2 mi
11:20 AM54 °FDrizzle. Partly sunny.22 mph88%30.09 "Hg2 mi
10:50 AM54 °FPartly sunny.21 mph88%30.09 "HgN/A
10:20 AM54 °FPartly sunny.20 mph88%30.09 "HgN/A
9:50 AM54 °FPartly sunny.21 mph82%30.09 "HgN/A
9:20 AM52 °FPartly sunny.20 mph94%30.07 "HgN/A
8:50 AM52 °FPartly sunny.23 mph88%30.07 "HgN/A
8:20 AM52 °FPartly sunny.22 mph88%30.07 "HgN/A
7:50 AM52 °FPartly sunny.21 mph88%30.07 "HgN/A
7:20 AM52 °FPartly sunny.22 mph88%30.07 "HgN/A
6:50 AM52 °FPartly sunny.25 mph88%30.07 "HgN/A
6:20 AM52 °FPartly sunny.23 mph88%30.07 "Hg6 mi
5:50 AM52 °FPartly sunny.21 mph88%30.04 "Hg6 mi
5:20 AM52 °FLow clouds.23 mph88%30.04 "HgN/A
4:50 AM52 °FLow clouds.21 mph88%30.07 "HgN/A
4:20 AM52 °FLow clouds.21 mph88%30.07 "HgN/A
3:50 AM52 °FLow clouds.22 mph88%30.07 "HgN/A
3:20 AM52 °FLow clouds.20 mph88%30.07 "HgN/A
2:50 AM52 °FLow clouds.18 mph88%30.07 "HgN/A
2:20 AM52 °FLow clouds.20 mph88%30.07 "HgN/A
1:50 AM52 °FLow clouds.18 mph88%30.07 "HgN/A
1:20 AM52 °FLow clouds.21 mph88%30.07 "HgN/A
12:50 AM52 °FLow clouds.16 mph88%30.07 "HgN/A
12:20 AM52 °FMostly cloudy.13 mph88%30.07 "HgN/A
11:50 PM
Mon, May 30
52 °FLow clouds.17 mph88%30.07 "HgN/A
11:20 PM52 °FMostly cloudy.13 mph88%30.09 "HgN/A
10:50 PM52 °FPassing clouds.12 mph88%30.09 "HgN/A
10:20 PM54 °FCool.14 mph82%30.07 "HgN/A
9:50 PM54 °FSunny.14 mph82%30.07 "Hg10 mi
9:20 PM55 °FSunny.16 mph77%30.07 "Hg10 mi
8:50 PM55 °FSunny.16 mph72%30.09 "Hg10 mi
8:20 PM57 °FSunny.15 mph72%30.09 "Hg10 mi
7:50 PM57 °FPassing clouds.16 mph72%30.07 "HgN/A
7:20 PM59 °FPassing clouds.17 mph68%30.07 "HgN/A
Weather by CustomWeather, © 2016

See weather overviewHow to use our weather pages